DW9210 Weather Reports


Display with metric or nautical units.
time (UTC)temp
F
wind
direction
speed
MPH
gust
MPH
rain 1hr
in
rain 24hr
in
rain mn
in
humidity
%
barometer
mb
20260831020003 73 0 0.0 0.0 0.00 0.00 0.00 92 1017.0
20260831015503 73 0 0.0 0.0 0.00 0.00 0.00 91 1017.0
20260831015003 73 0 0.0 0.0 0.00 0.00 0.00 91 1016.9
20260831014503 74 0 0.0 0.0 0.00 0.00 0.00 91 1016.9
20260831014003 74 0 0.0 0.0 0.00 0.00 0.00 90 1016.7
20260831013503 74 0 0.0 0.0 0.00 0.00 0.00 90 1016.7
20260831013003 74 0 0.0 0.0 0.00 0.00 0.00 90 1016.6
20260831012503 74 0 0.0 0.0 0.00 0.00 0.00 90 1016.6
20260831012003 74 0 0.0 0.0 0.00 0.00 0.00 89 1016.6
20260831011503 75 0 0.0 0.0 0.00 0.00 0.00 88 1016.6
20260831011003 75 0 0.0 0.0 0.00 0.00 0.00 88 1016.5
20260831010503 75 0 0.0 0.0 0.00 0.00 0.00 88 1016.3
20260831010003 76 0 0.0 0.0 0.00 0.00 0.00 87 1016.3
20260831005524 76 0 0.0 0.0 0.00 0.00 0.00 87 1016.3
20260831005024 76 0 0.0 0.0 0.00 0.00 0.00 85 1016.2
20260831004524 77 0 0.0 0.0 0.00 0.00 0.00 84 1016.2
20260831004003 77 0 0.0 0.0 0.00 0.00 0.00 83 1016.1
20260831003503 78 0 0.0 0.0 0.00 0.00 0.00 82 1016.0
20260831003003 78 0 0.0 0.0 0.00 0.00 0.00 81 1016.1
20260831002503 79 0 0.0 0.0 0.00 0.00 0.00 78 1016.0
20260831002003 79 0 0.0 0.0 0.00 0.00 0.00 77 1016.0
20260831001503 80 0 0.0 0.0 0.00 0.00 0.00 75 1016.1
20260831001024 81 0 0.0 0.0 0.00 0.00 0.00 75 1016.0
20260831000503 82 0 0.0 0.0 0.00 0.00 0.00 73 1016.0
20260831000003 82 0 0.0 0.0 0.00 0.00 0.00 71 1016.0
20260830235503 83 194 0.0 1.0 0.00 0.00 0.00 69 1016.0
20260830235003 84 195 0.0 1.0 0.00 0.00 0.00 69 1015.9
20260830234503 84 188 0.0 1.0 0.00 0.00 0.00 67 1016.0
20260830234003 85 186 0.0 1.0 0.00 0.00 0.00 67 1015.9
20260830233503 86 194 0.0 2.0 0.00 0.00 0.00 64 1015.7
20260830233003 87 201 0.0 2.0 0.00 0.00 0.00 61 1015.8
20260830232503 88 203 0.0 2.0 0.00 0.00 0.00 57 1015.6
20260830232003 89 203 0.0 2.0 0.00 0.00 0.00 56 1015.6
20260830231503 90 209 0.0 3.0 0.00 0.00 0.00 56 1015.6
20260830231003 90 208 1.0 3.0 0.00 0.00 0.00 54 1015.6
20260830230503 91 210 1.0 2.0 0.00 0.00 0.00 53 1015.8
20260830230003 91 212 1.0 3.0 0.00 0.00 0.00 51 1015.8
20260830225503 91 225 1.0 3.0 0.00 0.00 0.00 52 1015.8
20260830225003 91 232 1.0 3.0 0.00 0.00 0.00 51 1015.7
20260830224503 91 240 1.0 2.0 0.00 0.00 0.00 50 1015.8
20260830224003 91 244 1.0 4.0 0.00 0.00 0.00 52 1015.8
20260830223503 91 243 1.0 4.0 0.00 0.00 0.00 53 1015.8
20260830223003 91 238 1.0 2.0 0.00 0.00 0.00 51 1015.9
20260830222524 90 238 1.0 2.0 0.00 0.00 0.00 52 1016.0
20260830222024 90 246 0.0 1.0 0.00 0.00 0.00 54 1016.0
20260830221503 90 246 0.0 1.0 0.00 0.00 0.00 59 1016.1
20260830221003 89 245 1.0 2.0 0.00 0.00 0.00 57 1016.2
20260830220503 89 255 1.0 3.0 0.00 0.00 0.00 56 1016.1
20260830220024 89 258 1.0 3.0 0.00 0.00 0.00 52 1016.1
20260830215524 90 262 1.0 7.0 0.00 0.00 0.00 52 1016.0
20260830215003 90 278 2.0 7.0 0.00 0.00 0.00 46 1016.0
20260830214503 91 289 2.0 4.0 0.00 0.00 0.00 54 1016.1
20260830214003 91 277 2.0 6.0 0.00 0.00 0.00 54 1016.1
20260830213503 92 252 3.0 6.0 0.00 0.00 0.00 48 1016.2
20260830213003 92 234 3.0 5.0 0.00 0.00 0.00 44 1016.3
20260830212524 92 250 3.0 7.0 0.00 0.00 0.00 45 1016.2
20260830212003 92 269 2.0 7.0 0.00 0.00 0.00 49 1016.3
20260830211503 92 273 2.0 5.0 0.00 0.00 0.00 50 1016.3
20260830211003 92 255 1.0 5.0 0.00 0.00 0.00 48 1016.3
20260830210503 92 235 2.0 6.0 0.00 0.00 0.00 46 1016.4
20260830210003 92 244 2.0 6.0 0.00 0.00 0.00 47 1016.5
20260830205503 93 255 2.0 6.0 0.00 0.00 0.00 51 1016.5
20260830205003 92 242 2.0 6.0 0.00 0.00 0.00 52 1016.5
20260830204503 92 247 2.0 6.0 0.00 0.00 0.00 51 1016.5
20260830204024 92 329 1.0 3.0 0.00 0.00 0.00 51 1016.5
20260830203503 92 291 1.0 5.0 0.00 0.00 0.00 49 1016.5
20260830203024 92 288 2.0 5.0 0.00 0.00 0.00 49 1016.5
20260830202503 92 277 3.0 6.0 0.00 0.00 0.00 53 1016.6
20260830202003 92 267 2.0 6.0 0.00 0.00 0.00 52 1016.7
20260830201524 91 279 2.0 4.0 0.00 0.00 0.00 53 1016.8
20260830201003 91 270 3.0 7.0 0.00 0.00 0.00 54 1016.8
20260830200503 91 251 3.0 7.0 0.00 0.00 0.00 49 1016.9
20260830200003 91 254 2.0 5.0 0.00 0.00 0.00 54 1017.0
20260830195503 91 291 2.0 5.0 0.00 0.00 0.00 59 1017.1
20260830195024 91 286 2.0 6.0 0.00 0.00 0.00 58 1017.1
20260830194503 90 271 3.0 7.0 0.00 0.00 0.00 56 1017.1
20260830194003 90 285 3.0 7.0 0.00 0.00 0.00 54 1017.2
20260830193503 90 288 3.0 8.0 0.00 0.00 0.00 59 1017.3
20260830193003 90 275 3.0 8.0 0.00 0.00 0.00 58 1017.4
20260830192503 90 289 2.0 5.0 0.00 0.00 0.00 57 1017.4
20260830192003 90 300 2.0 5.0 0.00 0.00 0.00 57 1017.6
20260830191503 89 278 2.0 6.0 0.00 0.00 0.00 59 1017.7
20260830191003 88 257 3.0 7.0 0.00 0.00 0.00 61 1017.8
20260830190503 87 247 2.0 8.0 0.00 0.00 0.00 58 1017.9
20260830190003 88 253 2.0 8.0 0.00 0.00 0.00 57 1017.9
20260830185503 88 262 4.0 9.0 0.00 0.00 0.00 57 1017.9
20260830185003 88 265 4.0 9.0 0.00 0.00 0.00 54 1018.1
20260830184524 88 262 3.0 8.0 0.00 0.00 0.00 60 1018.0
20260830184003 88 266 2.0 7.0 0.00 0.00 0.00 58 1018.1
20260830183503 89 271 3.0 8.0 0.00 0.00 0.00 60 1018.2
20260830183003 89 275 4.0 8.0 0.00 0.00 0.00 57 1018.2
20260830182503 89 279 3.0 7.0 0.00 0.00 0.00 60 1018.3
20260830182024 90 274 2.0 5.0 0.00 0.00 0.00 61 1018.3
20260830181503 89 232 2.0 6.0 0.00 0.00 0.00 57 1018.4
20260830181003 89 217 3.0 6.0 0.00 0.00 0.00 59 1018.4
20260830180503 89 239 3.0 11.0 0.00 0.00 0.00 58 1018.4
20260830180024 89 243 4.0 11.0 0.00 0.00 0.00 57 1018.5
20260830175503 89 231 3.0 9.0 0.00 0.00 0.00 62 1018.6
20260830175003 88 235 3.0 8.0 0.00 0.00 0.00 58 1018.6
20260830174503 88 238 4.0 9.0 0.00 0.00 0.00 59 1018.7
20260830174003 88 240 3.0 9.0 0.00 0.00 0.00 63 1018.7
20260830173524 87 247 3.0 8.0 0.00 0.00 0.00 62 1018.8
20260830173003 87 246 3.0 8.0 0.00 0.00 0.00 58 1018.7
20260830172503 88 243 3.0 8.0 0.00 0.00 0.00 60 1018.8
20260830172003 88 245 4.0 8.0 0.00 0.00 0.00 60 1018.9
20260830171503 89 260 4.0 11.0 0.00 0.00 0.00 60 1018.8
20260830171003 88 257 5.0 11.0 0.00 0.00 0.00 61 1018.8
20260830170503 88 242 5.0 13.0 0.00 0.00 0.00 62 1018.9
20260830170003 88 245 4.0 13.0 0.00 0.00 0.00 63 1019.0
20260830165503 88 245 3.0 9.0 0.00 0.00 0.00 63 1019.0
20260830165024 88 230 3.0 10.0 0.00 0.00 0.00 64 1019.1
20260830164503 88 239 4.0 13.0 0.00 0.00 0.00 67 1019.1
20260830164003 88 238 4.0 13.0 0.00 0.00 0.00 67 1019.0
20260830163503 88 250 3.0 8.0 0.00 0.00 0.00 66 1019.1
20260830163003 88 241 3.0 7.0 0.00 0.00 0.00 67 1019.1
20260830162503 88 211 2.0 7.0 0.00 0.00 0.00 68 1019.1
20260830162003 88 223 3.0 7.0 0.00 0.00 0.00 68 1019.2
20260830161503 87 234 3.0 7.0 0.00 0.00 0.00 69 1019.2
20260830161004 87 228 3.0 7.0 0.00 0.00 0.00 71 1019.2
20260830160503 87 225 2.0 7.0 0.00 0.00 0.00 69 1019.1
20260830160003 87 225 3.0 8.0 0.00 0.00 0.00 70 1019.2
20260830155524 87 205 3.0 8.0 0.00 0.00 0.00 71 1019.2
20260830155003 86 200 2.0 7.0 0.00 0.00 0.00 71 1019.1
20260830154503 86 225 2.0 7.0 0.00 0.00 0.00 73 1019.1
20260830154003 86 237 2.0 9.0 0.00 0.00 0.00 74 1019.1
20260830153524 86 221 2.0 9.0 0.00 0.00 0.00 72 1019.1
20260830153003 86 211 2.0 5.0 0.00 0.00 0.00 73 1019.0
20260830152503 85 219 2.0 6.0 0.00 0.00 0.00 71 1019.0
20260830152024 85 218 2.0 6.0 0.00 0.00 0.00 72 1018.9
20260830151503 85 214 2.0 5.0 0.00 0.00 0.00 72 1018.9
20260830151003 85 214 2.0 7.0 0.00 0.00 0.00 73 1019.0
20260830150503 85 208 2.0 7.0 0.00 0.00 0.00 73 1018.8
20260830150003 84 203 2.0 7.0 0.00 0.00 0.00 74 1018.7
20260830145503 84 205 2.0 7.0 0.00 0.00 0.00 75 1018.7
20260830145003 83 207 2.0 7.0 0.00 0.00 0.00 76 1018.7
20260830144503 83 212 2.0 7.0 0.00 0.00 0.00 77 1018.8
20260830144003 83 223 2.0 7.0 0.00 0.00 0.00 76 1018.8
20260830143503 82 222 2.0 6.0 0.00 0.00 0.00 79 1018.8
20260830143003 82 216 2.0 6.0 0.00 0.00 0.00 77 1018.8
20260830142503 82 212 2.0 8.0 0.00 0.00 0.00 77 1018.7
20260830142024 82 213 2.0 8.0 0.00 0.00 0.00 77 1018.6
20260830141503 82 215 3.0 9.0 0.00 0.00 0.00 78 1018.6
20260830141003 82 218 2.0 9.0 0.00 0.00 0.00 77 1018.6
20260830140503 81 204 2.0 7.0 0.00 0.00 0.00 80 1018.6
20260830140003 80 201 2.0 5.0 0.00 0.00 0.00 81 1018.5
20260830135503 80 217 2.0 9.0 0.00 0.00 0.00 82 1018.5
20260830135024 80 219 2.0 9.0 0.00 0.00 0.00 81 1018.5
20260830134503 80 224 2.0 7.0 0.00 0.00 0.00 82 1018.5
20260830134003 79 216 3.0 9.0 0.00 0.00 0.00 83 1018.5
20260830133503 79 213 1.0 9.0 0.00 0.00 0.00 82 1018.5
20260830133003 79 0 0.0 0.0 0.00 0.00 0.00 83 1018.5
20260830132524 78 0 0.0 0.0 0.00 0.00 0.00 83 1018.4
20260830132024 78 0 0.0 0.0 0.00 0.00 0.00 84 1018.4
20260830131503 77 0 0.0 0.0 0.00 0.00 0.00 86 1018.3
20260830131003 77 0 0.0 0.0 0.00 0.00 0.00 87 1018.3
20260830130503 76 0 0.0 0.0 0.00 0.00 0.00 87 1018.4
20260830130003 75 0 0.0 0.0 0.00 0.00 0.00 87 1018.3
20260830125524 75 0 0.0 0.0 0.00 0.00 0.00 89 1018.4
20260830125003 74 0 0.0 0.0 0.00 0.00 0.00 90 1018.4
20260830124503 73 0 0.0 0.0 0.00 0.00 0.00 92 1018.5
20260830124003 72 0 0.0 0.0 0.00 0.00 0.00 93 1018.5
20260830123503 72 0 0.0 0.0 0.00 0.00 0.00 94 1018.5
20260830123003 71 0 0.0 0.0 0.00 0.00 0.00 94 1018.4
20260830122503 70 0 0.0 0.0 0.00 0.00 0.00 96 1018.4
20260830122003 70 0 0.0 0.0 0.00 0.00 0.00 97 1018.4
20260830121503 69 0 0.0 0.0 0.00 0.00 0.00 97 1018.3
20260830121003 68 0 0.0 0.0 0.00 0.00 0.00 98 1018.1
20260830120503 67 0 0.0 0.0 0.00 0.00 0.00 98 1018.1
20260830120024 66 0 0.0 0.0 0.00 0.00 0.00 98 1018.0
20260830115503 66 0 0.0 0.0 0.00 0.00 0.00 97 1018.1
20260830115003 65 0 0.0 0.0 0.00 0.00 0.00 97 1018.0
20260830114503 65 0 0.0 0.0 0.00 0.00 0.00 97 1018.1
20260830114003 64 0 0.0 0.0 0.00 0.00 0.00 97 1018.1
20260830113524 64 0 0.0 0.0 0.00 0.00 0.00 97 1018.1
20260830113003 64 0 0.0 0.0 0.00 0.00 0.00 97 1018.1
20260830112503 64 0 0.0 0.0 0.00 0.00 0.00 97 1018.0
20260830112003 64 0 0.0 0.0 0.00 0.00 0.00 97 1017.9
20260830111503 64 0 0.0 0.0 0.00 0.00 0.00 97 1017.9
20260830111003 64 0 0.0 0.0 0.00 0.00 0.00 96 1017.8
20260830110503 64 0 0.0 0.0 0.00 0.00 0.00 97 1017.8
20260830110024 64 0 0.0 0.0 0.00 0.00 0.00 97 1017.8
20260830105503 64 0 0.0 0.0 0.00 0.00 0.00 97 1017.8
20260830105003 64 0 0.0 0.0 0.00 0.00 0.00 97 1017.7
20260830104503 64 0 0.0 0.0 0.00 0.00 0.00 96 1017.6
20260830104024 64 0 0.0 0.0 0.00 0.00 0.00 96 1017.6
20260830103503 64 0 0.0 0.0 0.00 0.00 0.00 96 1017.6
20260830103024 64 0 0.0 0.0 0.00 0.00 0.00 96 1017.5
20260830102503 64 0 0.0 0.0 0.00 0.00 0.00 97 1017.5
20260830102003 64 0 0.0 0.0 0.00 0.00 0.00 96 1017.5
20260830101503 65 0 0.0 0.0 0.00 0.00 0.00 96 1017.5
20260830101003 65 0 0.0 0.0 0.00 0.00 0.00 97 1017.5
20260830100524 65 0 0.0 0.0 0.00 0.00 0.00 96 1017.5
20260830100003 65 0 0.0 0.0 0.00 0.00 0.00 96 1017.5
20260830095524 65 0 0.0 0.0 0.00 0.00 0.00 96 1017.5
20260830095003 65 0 0.0 0.0 0.00 0.00 0.00 96 1017.4
20260830094524 65 0 0.0 0.0 0.00 0.00 0.00 96 1017.5
20260830094003 65 0 0.0 0.0 0.00 0.00 0.00 96 1017.5
20260830093503 65 0 0.0 0.0 0.00 0.00 0.00 97 1017.5
20260830093003 65 0 0.0 0.0 0.00 0.00 0.00 97 1017.5
20260830092503 65 0 0.0 0.0 0.00 0.00 0.00 97 1017.4
20260830092003 65 0 0.0 0.0 0.00 0.00 0.00 97 1017.4
20260830091503 65 0 0.0 0.0 0.00 0.00 0.00 96 1017.5
20260830091003 65 0 0.0 0.0 0.00 0.00 0.00 97 1017.5
20260830090503 65 0 0.0 0.0 0.00 0.00 0.00 97 1017.5
20260830090004 65 0 0.0 0.0 0.00 0.00 0.00 97 1017.6
20260830085503 65 0 0.0 0.0 0.00 0.00 0.00 97 1017.6
20260830085003 65 0 0.0 0.0 0.00 0.00 0.00 97 1017.6
20260830084503 65 0 0.0 0.0 0.00 0.00 0.00 97 1017.6
20260830084003 65 0 0.0 0.0 0.00 0.00 0.00 96 1017.7
20260830083524 65 0 0.0 0.0 0.00 0.00 0.00 96 1017.7
20260830083003 65 0 0.0 0.0 0.00 0.00 0.00 97 1017.8
20260830082524 65 0 0.0 0.0 0.00 0.00 0.00 97 1017.7
20260830082003 65 0 0.0 0.0 0.00 0.00 0.00 97 1017.7
20260830081503 65 0 0.0 0.0 0.00 0.00 0.00 97 1017.7
20260830081003 65 0 0.0 0.0 0.00 0.00 0.00 97 1017.7
20260830080503 65 0 0.0 0.0 0.00 0.00 0.00 97 1017.7
20260830080003 64 0 0.0 0.0 0.00 0.00 0.00 96 1017.7
20260830075524 64 0 0.0 0.0 0.00 0.00 0.00 96 1017.7
20260830075003 64 0 0.0 0.0 0.00 0.00 0.00 96 1017.7
20260830074503 64 0 0.0 0.0 0.00 0.00 0.00 96 1017.8
20260830074024 64 0 0.0 0.0 0.00 0.00 0.00 96 1017.8
20260830073503 65 0 0.0 0.0 0.00 0.00 0.00 96 1017.9
20260830073003 65 0 0.0 0.0 0.00 0.00 0.00 96 1017.9
20260830072503 65 0 0.0 0.0 0.00 0.00 0.00 96 1017.9
20260830072024 65 0 0.0 0.0 0.00 0.00 0.00 96 1017.8
20260830071503 65 0 0.0 0.0 0.00 0.00 0.00 96 1017.8
20260830071003 65 0 0.0 0.0 0.00 0.00 0.00 96 1017.8
20260830070503 65 0 0.0 0.0 0.00 0.00 0.00 96 1017.8
20260830070003 65 0 0.0 0.0 0.00 0.00 0.00 96 1017.8
20260830065503 65 0 0.0 0.0 0.00 0.00 0.00 96 1017.8
20260830065003 65 0 0.0 0.0 0.00 0.00 0.00 96 1017.9
20260830064503 65 0 0.0 0.0 0.00 0.00 0.00 96 1017.9
20260830064003 64 0 0.0 0.0 0.00 0.00 0.00 96 1018.0
20260830063503 64 0 0.0 0.0 0.00 0.00 0.00 96 1018.0
20260830063003 65 0 0.0 0.0 0.00 0.00 0.00 96 1017.9
20260830062503 65 0 0.0 0.0 0.00 0.00 0.00 96 1018.0
20260830062003 64 0 0.0 0.0 0.00 0.00 0.00 96 1018.0
20260830061524 64 0 0.0 0.0 0.00 0.00 0.00 95 1018.1
20260830061003 65 0 0.0 0.0 0.00 0.00 0.00 95 1018.1
20260830060524 65 0 0.0 0.0 0.00 0.00 0.00 95 1018.1
20260830060003 65 0 0.0 0.0 0.00 0.00 0.00 95 1018.1
20260830055503 65 0 0.0 0.0 0.00 0.00 0.00 95 1018.2
20260830055003 65 0 0.0 0.0 0.00 0.00 0.00 96 1018.2
20260830054503 65 0 0.0 0.0 0.00 0.00 0.00 95 1018.2
20260830054003 65 0 0.0 0.0 0.00 0.00 0.00 95 1018.2
20260830053503 65 0 0.0 0.0 0.00 0.00 0.00 95 1018.2
20260830053003 65 0 0.0 0.0 0.00 0.00 0.00 95 1018.2
20260830052524 65 0 0.0 0.0 0.00 0.00 0.00 95 1018.1
20260830052003 66 0 0.0 0.0 0.00 0.00 0.00 95 1018.1
20260830051503 66 0 0.0 0.0 0.00 0.00 0.00 95 1018.1
20260830051003 66 0 0.0 0.0 0.00 0.00 0.00 95 1018.1
20260830050503 66 0 0.0 0.0 0.00 0.00 0.00 95 1018.1
20260830050024 66 0 0.0 0.0 0.00 0.00 0.00 95 1018.1
20260830045503 66 0 0.0 0.0 0.00 0.00 0.00 95 1018.1
20260830045003 66 0 0.0 0.0 0.00 0.00 0.00 95 1018.1
20260830044503 66 0 0.0 0.0 0.00 0.00 0.00 95 1018.1
20260830044003 66 0 0.0 0.0 0.00 0.00 0.00 95 1018.0
20260830043503 66 0 0.0 0.0 0.00 0.00 0.00 95 1018.0
20260830043003 66 0 0.0 0.0 0.00 0.00 0.00 95 1018.0
20260830042503 66 0 0.0 0.0 0.00 0.00 0.00 95 1018.1
20260830042003 66 0 0.0 0.0 0.00 0.00 0.00 95 1018.1
20260830041524 66 0 0.0 0.0 0.00 0.00 0.00 95 1018.1
20260830041003 66 0 0.0 0.0 0.00 0.00 0.00 94 1018.1
20260830040503 67 0 0.0 0.0 0.00 0.00 0.00 94 1017.9
20260830040003 67 0 0.0 0.0 0.00 0.00 0.00 95 1018.1
20260830035524 67 0 0.0 0.0 0.00 0.00 0.00 94 1018.0
20260830035003 67 0 0.0 0.0 0.00 0.00 0.00 94 1018.0
20260830034503 67 0 0.0 0.0 0.00 0.00 0.00 94 1018.0
20260830034003 67 0 0.0 0.0 0.00 0.00 0.00 94 1018.0
20260830033503 68 0 0.0 0.0 0.00 0.00 0.00 94 1017.9
20260830033003 68 0 0.0 0.0 0.00 0.00 0.00 94 1017.9
20260830032503 68 0 0.0 0.0 0.00 0.00 0.00 94 1017.8
20260830032003 68 0 0.0 0.0 0.00 0.00 0.00 94 1017.9
20260830031503 68 0 0.0 0.0 0.00 0.00 0.00 94 1017.9
20260830031003 68 0 0.0 0.0 0.00 0.00 0.00 94 1017.9
20260830030503 68 0 0.0 0.0 0.00 0.00 0.00 94 1017.9
20260830030003 68 0 0.0 0.0 0.00 0.00 0.00 94 1017.9
20260830025503 68 0 0.0 0.0 0.00 0.00 0.00 94 1017.8
20260830025003 68 0 0.0 0.0 0.00 0.00 0.00 94 1017.7
20260830024503 68 0 0.0 0.0 0.00 0.00 0.00 93 1017.7
20260830024003 68 0 0.0 0.0 0.00 0.00 0.00 93 1017.7
20260830023503 69 0 0.0 0.0 0.00 0.00 0.00 93 1017.7
20260830023003 69 0 0.0 0.0 0.00 0.00 0.00 93 1017.7
20260830022503 69 0 0.0 0.0 0.00 0.00 0.00 93 1017.7
20260830022003 69 0 0.0 0.0 0.00 0.00 0.00 93 1017.6
20260830021503 69 0 0.0 0.0 0.00 0.00 0.00 93 1017.7
20260830021003 69 0 0.0 0.0 0.00 0.00 0.00 93 1017.7
20260830020524 69 0 0.0 0.0 0.00 0.00 0.00 93 1017.6